Date,TemperatureHighF,TemperatureAvgF,TemperatureLowF,DewpointHighF,DewpointAvgF,DewpointLowF,HumidityHigh,HumidityAvg,HumidityLow,PressureMaxIn,PressureMinIn,WindSpeedMaxMPH,WindSpeedAvgMPH,GustSpeedMaxMPH,PrecipitationSumIn
2012-1-1,53.0,42.8,33.7,35.2,22.6,9.9,77,47,25,30.49,29.79,6,3,13,0.00
2012-1-2,38.9,30.7,23.4,13.7,7.6,0.1,57,39,20,30.60,30.49,7,2,15,0.00
2012-1-3,49.4,31.4,11.1,17.5,11.5,5.3,90,49,20,30.57,30.13,6,2,10,0.00
2012-1-4,54.5,41.3,28.0,34.1,27.2,17.4,90,59,42,30.27,30.09,4,1,7,0.00
2012-1-5,66.9,50.0,28.4,32.3,29.2,25.2,90,48,26,30.22,29.89,6,2,11,0.00
2012-1-6,69.7,55.0,45.6,36.7,32.9,26.2,64,45,25,29.96,29.74,7,3,19,0.00
2012-1-7,52.3,43.6,32.4,29.8,25.9,21.5,79,51,32,30.21,29.96,4,1,5,0.00
2012-1-8,43.0,36.4,29.7,31.0,28.2,24.4,91,72,59,30.30,30.20,3,1,6,0.00
2012-1-9,53.2,34.6,21.3,34.3,26.1,20.0,97,75,37,30.30,30.15,2,0,4,0.00
2012-1-10,59.2,39.7,21.4,32.1,26.2,19.6,95,64,28,30.17,29.73,4,0,5,0.00
2012-1-11,60.2,46.4,28.9,33.7,30.0,22.9,87,56,29,29.82,29.57,7,2,12,0.00
2012-1-12,28.8,20.7,18.5,24.8,13.6,8.6,91,74,64,30.05,29.82,5,2,18,0.00
2012-1-13,31.6,21.7,13.2,12.6,9.9,5.8,81,62,35,30.20,30.04,4,1,9,0.00
2012-1-14,43.2,32.9,19.3,26.3,20.9,10.8,94,62,48,30.31,29.96,5,1,8,0.00
2012-1-15,55.4,40.2,20.6,32.9,27.3,18.9,94,63,38,30.31,29.96,9,4,16,0.00
2012-1-16,70.1,60.2,47.6,56.0,48.0,32.8,80,65,48,29.96,29.60,11,6,24,0.00
2012-1-17,62.2,33.6,19.7,54.2,27.4,14.0,96,78,59,30.41,29.60,5,2,24,0.38
2012-1-18,40.7,26.2,9.1,20.1,15.3,6.8,93,66,35,30.42,30.00,6,1,14,0.00
2012-1-19,47.8,34.1,22.6,28.4,21.9,15.9,75,62,46,30.08,29.91,5,2,13,0.00
2012-1-20,33.9,25.9,19.6,29.3,21.8,15.2,93,84,75,30.11,29.80,5,2,11,0.00
2012-1-21,29.2,24.0,18.4,25.6,19.4,13.4,89,82,76,30.25,29.92,3,2,11,0.00
2012-1-22,57.6,43.9,28.5,50.6,40.2,25.7,97,88,50,29.92,29.40,9,4,21,0.00
2012-1-23,54.1,42.3,31.4,41.4,30.6,25.5,81,64,44,30.11,29.45,7,3,25,0.00
2012-1-24,57.3,38.8,22.3,32.1,26.4,20.7,96,66,27,30.29,30.10,4,1,10,0.00
2012-1-25,44.2,40.1,35.2,42.1,35.6,27.3,97,85,55,30.22,29.93,6,1,13,0.16
2012-1-26,48.5,39.7,34.9,39.9,35.5,31.6,98,86,68,29.93,29.78,2,0,9,0.17
2012-1-27,48.5,37.2,23.6,39.5,32.0,22.6,97,83,53,30.14,29.89,4,1,16,0.11
2012-1-28,46.4,36.2,24.2,33.7,22.8,18.1,91,61,35,30.40,30.14,5,1,16,0.11
2012-1-29,54.2,41.5,29.8,27.9,22.5,18.8,68,49,27,30.31,30.17,4,1,9,0.00
2012-1-30,66.0,54.7,42.3,45.0,36.3,26.5,61,50,38,30.17,29.93,8,4,22,0.00
2012-1-31,63.2,57.9,50.2,53.2,48.1,36.9,88,70,52,30.03,29.86,8,3,19,0.00
2012-2-1,62.8,48.2,33.7,43.7,35.7,29.9,96,65,34,30.19,30.03,3,1,9,0.00
2012-2-2,65.0,47.3,25.5,38.6,28.4,24.5,97,56,23,30.30,30.19,5,1,12,0.00
2012-2-3,51.7,47.4,44.4,46.3,39.6,29.3,97,76,42,30.21,29.94,9,3,20,0.99
2012-2-4,47.7,45.2,39.5,47.4,43.9,38.6,99,95,87,30.17,29.93,3,1,14,0.02
2012-2-5,49.2,38.5,27.9,39.4,33.7,26.9,97,85,49,30.34,30.17,4,1,11,0.05
2012-2-6,53.4,35.5,20.9,35.5,27.5,19.9,98,77,39,30.34,30.21,3,0,9,0.00
2012-2-7,53.8,36.2,25.4,38.4,31.0,24.2,97,83,47,30.39,30.24,3,1,9,0.09
2012-2-8,35.3,33.0,31.5,31.6,30.3,29.0,94,90,82,30.48,30.40,3,0,7,0.10
2012-2-9,40.1,35.3,31.0,31.2,29.7,28.4,95,81,66,30.41,30.15,2,0,7,0.00
2012-2-10,41.0,31.4,16.0,37.1,25.2,7.6,97,79,54,30.43,30.06,6,2,20,0.01
2012-2-11,30.0,19.9,11.1,7.9,4.8,0.6,79,54,30,30.71,30.43,6,2,14,0.00
2012-2-12,39.4,25.0,7.3,9.9,3.5,-1.7,87,45,18,30.70,30.26,2,0,8,0.00
2012-2-13,34.5,30.8,27.2,31.1,23.9,5.0,95,80,29,30.26,29.85,4,2,13,0.00
2012-2-14,46.1,37.3,32.5,35.4,32.7,31.0,97,84,64,30.00,29.85,3,1,8,0.14
2012-2-15,48.5,42.9,37.8,46.4,40.9,34.2,98,93,84,30.00,29.84,5,1,12,0.40
2012-2-16,52.3,42.3,29.1,45.4,36.0,26.9,99,80,45,30.28,29.99,3,1,11,0.40
2012-2-17,60.1,45.9,27.6,39.1,34.9,26.2,98,69,41,30.24,30.07,5,1,11,0.00
2012-2-18,45.6,41.2,36.1,40.2,29.3,24.8,85,63,47,30.19,30.09,5,2,13,0.00
2012-2-19,50.8,40.2,29.2,29.6,26.2,21.5,87,59,37,30.16,30.07,3,1,9,0.00
2012-2-20,55.7,43.8,33.6,39.0,28.0,20.9,89,56,34,30.15,29.69,9,4,22,0.06
2012-2-21,57.7,45.7,35.9,39.7,31.8,23.8,90,62,30,29.96,29.69,7,3,23,0.11
2012-2-22,68.3,50.3,32.8,34.2,30.1,25.0,74,49,22,29.79,29.45,6,1,16,0.00
2012-2-23,73.4,54.9,40.8,43.6,36.2,29.1,68,51,27,29.68,29.18,7,3,22,0.00
2012-2-24,48.5,39.7,29.8,29.5,24.4,18.4,73,56,35,30.22,29.67,7,3,19,0.00
2012-2-25,48.9,38.6,28.4,26.9,20.7,14.8,85,51,28,30.38,30.11,4,1,12,0.00
2012-2-26,64.9,50.8,40.2,34.2,28.2,22.8,60,43,26,30.15,29.98,11,4,22,0.00
2012-2-27,53.8,44.7,37.9,34.5,26.3,20.7,72,50,29,30.45,30.15,4,2,13,0.00
2012-2-28,68.6,54.6,38.1,58.0,40.5,21.7,84,59,47,30.35,29.56,9,4,25,0.00
2012-2-29,64.6,56.9,49.6,59.1,36.9,25.5,84,51,25,29.79,29.56,11,5,24,0.05
2012-3-1,73.7,63.3,33.3,34.8,29.6,22.2,84,31,17,29.88,29.53,10,3,20,0.00
2012-3-2,57.8,44.0,28.5,42.9,34.9,26.3,96,72,42,29.91,29.35,6,2,20,0.11
2012-3-3,48.4,36.4,25.2,29.2,22.4,16.4,94,61,29,30.04,29.91,6,2,20,0.00
2012-3-4,62.2,43.1,22.9,35.1,25.9,18.9,88,55,25,30.16,29.84,7,2,21,0.00
2012-3-5,59.1,45.0,25.3,28.5,24.5,18.7,89,49,22,30.40,30.13,7,2,16,0.00
2012-3-6,73.2,60.6,48.4,43.3,33.0,24.1,52,38,17,30.13,29.88,14,7,28,0.00
2012-3-7,69.4,64.6,59.1,55.6,50.2,42.8,68,60,51,29.94,29.86,13,7,27,0.00
2012-3-8,66.2,40.8,27.9,57.4,35.6,26.1,94,82,63,30.49,29.90,7,2,19,0.20
2012-3-9,60.9,43.0,22.8,35.2,26.0,21.6,97,59,24,30.59,30.44,5,1,11,0.00
2012-3-10,66.8,52.5,38.0,27.2,24.7,21.1,57,36,19,30.46,30.20,6,2,15,0.00
2012-3-11,58.4,52.5,46.9,55.8,44.9,27.5,96,77,43,30.21,29.87,6,2,17,0.34
2012-3-12,79.6,64.7,54.3,55.6,50.1,45.0,97,64,31,29.96,29.80,8,3,24,0.34
2012-3-13,84.5,67.5,46.9,57.8,47.8,40.0,96,56,21,30.06,29.92,6,2,17,0.00
2012-3-14,83.6,74.6,62.3,64.4,59.9,49.9,86,61,48,30.01,29.90,8,4,23,0.00
2012-3-15,81.7,72.5,63.4,65.3,60.9,56.7,81,67,52,30.04,29.92,6,2,17,0.00
2012-3-16,83.3,71.8,61.4,64.8,60.2,56.5,88,69,43,30.02,29.89,6,3,16,0.00
2012-3-17,80.1,68.6,63.0,67.1,61.3,58.4,87,78,54,29.98,29.85,8,2,16,0.05
2012-3-18,80.7,72.1,64.7,62.1,59.0,55.8,82,64,49,29.97,29.84,8,4,17,0.05
2012-3-19,79.1,69.8,58.0,63.8,60.6,55.6,93,74,52,29.86,29.66,12,4,26,0.02
2012-3-20,74.9,60.4,56.4,60.8,57.2,55.0,97,90,58,29.90,29.72,10,2,27,1.43
2012-3-21,67.3,61.2,55.9,60.6,58.4,54.8,99,91,77,29.90,29.75,10,4,24,0.25
2012-3-22,68.2,57.4,50.3,54.7,51.1,48.3,97,81,53,29.98,29.83,10,2,24,0.07
2012-3-23,56.2,52.6,49.6,49.8,48.6,46.9,97,86,74,29.94,29.82,10,2,25,0.39
2012-3-24,75.4,60.7,46.1,54.3,49.6,45.3,98,70,38,29.98,29.87,6,1,15,0.01
2012-3-25,79.0,63.3,46.1,58.9,51.9,44.9,98,70,41,30.08,29.98,4,1,11,0.00
2012-3-26,82.4,69.5,53.6,58.8,55.2,51.3,94,63,40,30.09,29.94,5,2,13,0.00
2012-3-27,82.8,71.7,61.3,59.6,55.5,51.8,78,58,36,30.00,29.85,7,4,19,0.00
2012-3-28,83.4,71.7,60.1,61.2,57.6,53.2,84,63,42,29.98,29.84,4,1,10,0.00
2012-3-29,81.0,71.3,59.1,60.2,55.7,51.8,82,59,44,29.92,29.72,6,2,15,0.00
2012-3-30,79.5,68.8,62.1,63.6,58.8,52.8,86,72,51,29.77,29.70,4,2,12,0.00
2012-3-31,86.4,69.4,55.5,63.2,57.6,53.6,95,70,36,29.84,29.71,4,1,10,0.00
2012-4-1,90.5,76.2,62.6,66.0,59.3,53.1,88,59,30,29.72,29.50,6,2,15,0.00
2012-4-2,91.1,78.0,67.2,63.9,57.1,44.7,82,52,21,29.72,29.54,6,2,15,0.00
2012-4-3,76.0,66.5,57.6,63.7,59.6,55.0,97,80,52,29.84,29.71,4,1,9,0.00
2012-4-4,66.2,60.4,55.4,63.8,58.9,54.8,99,95,88,29.80,29.65,5,1,10,0.71
2012-4-5,56.8,50.6,42.9,56.2,49.1,42.1,99,94,90,30.02,29.67,4,1,12,0.80
2012-4-6,65.0,51.0,38.5,43.7,40.4,36.8,99,70,39,30.21,30.02,5,1,13,0.01
2012-4-7,60.7,53.4,43.5,55.2,46.3,35.7,92,77,54,30.30,30.10,3,1,11,0.06
2012-4-8,69.7,54.0,39.5,48.9,38.2,25.1,99,64,19,30.38,30.17,5,1,11,0.06
2012-4-9,73.9,55.0,36.2,46.0,37.9,26.5,98,62,19,30.22,30.05,3,0,8,0.00
2012-4-10,64.8,54.9,40.1,45.5,34.5,27.4,90,49,28,30.22,30.09,4,1,9,0.00
2012-4-11,60.3,49.6,36.7,39.1,29.9,24.3,97,51,26,30.32,30.17,4,1,10,0.00
2012-4-12,61.8,52.0,38.0,41.0,34.8,29.1,72,53,38,30.23,30.01,5,2,13,0.00
2012-4-13,60.6,54.5,48.2,60.0,49.1,38.1,98,84,49,30.02,29.89,5,2,12,1.55
2012-4-14,78.8,68.2,60.4,65.5,61.8,59.5,99,82,61,29.97,29.65,10,3,24,2.35
2012-4-15,71.5,66.1,57.5,65.1,60.2,50.9,96,82,73,29.70,29.54,8,4,22,0.99
2012-4-16,67.9,57.2,43.9,50.9,44.4,40.0,96,64,41,30.23,29.65,6,2,16,0.99
2012-4-17,71.5,55.5,38.4,51.4,44.9,37.9,99,72,39,30.32,30.18,4,1,10,0.00
2012-4-18,72.8,55.7,45.7,48.8,46.2,42.9,96,74,37,30.20,30.10,4,1,12,0.00
2012-4-19,80.5,74.8,66.4,51.4,49.3,45.5,57,42,30,29.87,29.67,8,4,17,0.00
2012-4-20,67.5,49.7,37.3,57.6,45.2,36.5,97,85,55,30.03,29.68,5,2,12,0.44
2012-4-21,64.1,47.2,31.9,46.4,39.2,31.4,99,78,42,30.08,29.95,4,1,9,0.01
2012-4-22,57.0,50.2,42.3,46.4,43.1,40.3,97,78,62,30.17,29.91,7,2,20,0.00
2012-4-23,64.5,49.6,32.7,45.6,40.0,32.2,98,74,43,30.19,29.99,4,1,12,0.00
2012-4-24,79.0,59.2,35.8,57.3,48.2,35.0,99,71,42,30.00,29.61,6,2,16,0.00
2012-4-25,87.7,75.9,63.7,66.9,60.9,53.3,81,61,44,29.65,29.51,7,2,17,0.00
2012-4-26,81.3,70.3,56.9,66.7,58.8,53.8,97,69,43,29.93,29.64,4,1,12,0.00
2012-4-27,65.8,59.1,53.6,53.7,49.1,45.1,85,69,57,30.00,29.74,10,4,24,0.14
2012-4-28,77.9,67.7,54.6,68.9,62.7,49.6,95,84,69,29.94,29.74,4,1,9,0.01
2012-4-29,76.3,65.7,58.6,69.8,62.9,58.0,99,91,74,30.04,29.87,6,2,15,1.37
2012-4-30,75.2,65.9,59.9,65.6,61.9,58.9,98,88,67,29.96,29.87,5,1,15,0.74
2012-5-1,83.5,72.4,61.3,70.7,64.6,59.6,97,78,56,29.89,29.72,6,2,16,0.89
2012-5-2,87.2,76.7,67.9,68.0,65.6,63.2,85,70,49,29.85,29.72,8,4,17,0.00
2012-5-3,84.0,75.2,65.3,72.2,68.4,63.5,96,80,59,29.91,29.80,6,3,14,0.00
2012-5-4,86.0,75.9,66.4,75.3,70.6,65.1,98,84,67,29.89,29.76,4,1,13,0.00
2012-5-5,88.2,76.2,64.7,73.4,69.7,63.9,99,82,57,29.86,29.76,4,0,8,0.00
2012-5-6,89.5,77.7,65.9,74.9,70.0,63.0,98,78,56,29.84,29.71,4,1,10,0.00
2012-5-7,69.8,65.6,59.0,65.9,62.6,55.0,97,90,80,29.95,29.78,4,1,12,0.54
2012-5-8,74.2,61.4,49.4,57.4,50.9,41.0,99,73,33,30.03,29.93,2,0,9,0.00
2012-5-9,70.0,57.8,44.2,53.5,48.6,43.7,99,75,44,30.05,29.94,3,1,10,0.00
2012-5-10,75.9,59.9,41.9,55.5,49.6,41.4,99,73,42,30.00,29.90,3,0,8,0.00
2012-5-11,75.3,63.8,50.4,61.5,54.3,48.7,95,73,49,30.10,29.95,4,1,12,0.00
2012-5-12,57.5,57.2,56.3,56.7,56.2,55.2,97,96,95,30.11,30.10,0,0,0,0.00
2012-5-14,76.4,66.7,50.9,58.3,52.3,46.3,97,64,39,30.14,30.03,3,1,10,0.00
2012-5-15,81.1,63.1,43.7,59.2,51.9,43.2,99,72,37,30.07,29.96,2,0,7,0.00
2012-5-16,80.0,65.3,52.0,60.4,52.9,44.6,98,69,30,30.03,29.97,4,1,10,0.00
2012-5-17,82.1,65.4,45.2,57.1,50.4,44.5,99,64,32,30.05,29.91,3,1,10,0.00
2012-5-18,87.7,72.7,56.5,64.9,56.1,47.4,77,57,36,29.95,29.81,4,1,10,0.00
2012-5-19,87.0,77.0,64.5,68.2,62.1,58.2,83,61,45,29.95,29.85,7,2,17,0.00
2012-5-20,81.6,73.5,65.1,69.0,63.4,56.6,89,71,62,30.09,29.93,4,1,11,0.00
2012-5-21,73.2,63.6,47.2,56.6,48.7,41.9,93,61,33,30.18,30.08,4,1,12,0.00
2012-5-22,79.5,61.5,41.2,56.1,48.0,40.5,99,67,33,30.09,29.84,3,0,10,0.00
2012-5-23,87.5,73.1,55.1,59.9,53.0,48.0,84,51,35,29.84,29.58,5,2,14,0.00
2012-5-24,88.1,77.7,69.2,71.6,63.1,52.6,84,61,46,29.72,29.51,7,2,18,0.00
2012-5-25,92.6,78.8,67.6,74.2,69.0,65.4,94,74,48,29.92,29.71,4,1,14,0.00
2012-5-26,93.0,79.9,67.1,76.9,69.7,63.6,94,73,50,29.97,29.86,5,1,12,0.00
2012-5-27,92.6,81.0,69.5,67.7,63.0,57.2,80,56,31,29.93,29.76,5,1,15,0.00
2012-5-28,89.9,80.8,70.9,72.1,66.5,58.9,92,63,50,29.80,29.72,7,2,18,0.00
2012-5-29,91.4,76.8,65.5,71.6,64.6,55.1,97,70,30,29.86,29.71,4,0,8,0.11
2012-5-30,84.9,72.8,59.0,63.9,59.5,51.3,95,65,44,29.98,29.73,3,0,9,0.06
2012-5-31,74.8,65.6,55.5,66.3,58.7,50.1,96,79,61,29.91,29.67,4,1,13,0.56
2012-6-1,70.0,58.8,51.9,51.7,49.0,46.2,94,72,46,30.01,29.90,3,1,11,0.00
2012-6-2,56.8,50.5,46.5,53.3,49.1,45.7,98,95,86,29.94,29.90,0,0,3,0.00
2012-6-4,91.1,82.1,64.8,73.7,69.0,61.8,100,67,39,29.83,29.71,3,1,11,0.01
2012-6-5,84.7,74.0,62.5,66.3,59.1,54.9,90,62,38,29.90,29.78,5,1,14,0.00
2012-6-6,84.3,70.9,56.2,59.5,56.0,51.7,90,62,38,30.01,29.88,3,1,10,0.00
2012-6-7,82.5,68.3,51.6,57.5,53.0,49.6,95,62,36,30.09,30.00,3,0,11,0.00
2012-6-8,85.3,69.2,50.3,61.6,54.4,49.5,98,65,33,30.07,29.89,3,0,10,0.00
2012-6-9,89.7,76.2,57.7,66.7,60.4,54.0,90,61,36,29.92,29.73,5,1,13,0.00
2012-6-10,88.8,78.3,68.1,69.5,66.4,60.6,93,68,48,29.80,29.72,6,2,20,0.00
2012-6-11,77.8,70.5,64.1,70.5,67.0,63.0,99,89,75,29.97,29.74,7,1,14,0.33
2012-6-12,83.9,69.9,55.2,64.0,55.8,49.2,100,67,32,30.13,29.97,4,1,11,0.01
2012-6-13,85.5,68.6,50.2,60.4,55.2,49.4,99,67,38,30.10,29.95,3,1,10,0.00
2012-6-14,88.8,77.3,58.9,63.1,58.4,52.9,95,56,30,30.00,29.84,4,2,13,0.00
2012-6-15,91.7,79.0,69.3,71.1,63.9,56.1,86,61,42,29.94,29.86,7,2,17,0.00
2012-6-16,71.2,69.6,67.8,66.6,65.9,64.9,91,88,85,29.97,29.93,0,0,2,0.00
2012-6-19,90.2,85.6,79.6,70.2,69.1,68.0,70,59,50,29.87,29.83,7,3,12,0.00
2012-6-20,92.5,82.5,73.8,70.2,67.3,61.9,80,61,43,29.95,29.86,6,3,12,0.00
2012-6-21,84.2,75.3,62.6,69.4,64.6,59.4,91,70,55,30.00,29.89,3,1,11,0.01
2012-6-22,90.0,74.6,56.3,65.4,59.6,55.4,98,65,35,30.02,29.89,0,0,11,0.00
2012-6-23,94.3,80.7,66.4,67.8,62.0,56.6,71,54,40,29.95,29.82,0,0,11,0.00
2012-6-24,100.1,85.9,72.0,69.6,64.7,58.5,82,51,32,29.92,29.81,0,0,11,0.00
2012-6-25,101.5,85.6,67.3,73.4,69.4,64.1,97,62,37,29.87,29.76,0,0,11,0.00
2012-6-26,95.4,81.4,67.7,65.4,54.8,45.6,62,42,19,29.89,29.78,4,1,11,0.00
2012-6-27,103.2,87.3,71.6,66.1,57.8,47.4,55,38,26,29.90,29.80,4,2,11,0.00
2012-6-28,105.0,85.2,70.9,63.7,57.1,52.1,74,42,18,29.93,29.84,4,1,11,0.00
2012-6-29,103.2,85.0,66.5,69.0,64.6,58.7,87,56,25,29.92,29.74,4,1,8,0.00
2012-6-30,101.2,84.1,67.6,68.9,64.9,58.7,90,58,25,29.85,29.75,5,1,10,0.00
2012-7-1,74.6,70.3,67.7,66.0,65.5,64.7,92,85,76,29.88,29.82,0,0,4,0.00
2012-7-2,99.0,89.6,76.1,70.9,67.9,64.2,74,51,33,29.97,29.84,5,1,10,0.00
2012-7-3,98.8,83.0,70.3,71.7,68.0,65.8,88,64,37,29.94,29.80,5,1,9,0.00
2012-7-4,102.7,85.6,67.8,67.7,63.6,57.8,86,53,25,29.94,29.81,6,1,10,0.00
2012-7-5,104.8,86.9,67.9,70.0,65.2,62.1,87,53,26,29.97,29.84,4,1,6,0.00
2012-7-6,107.1,88.8,69.7,70.2,65.7,57.7,89,53,21,29.96,29.84,3,0,5,0.00
2012-7-7,105.3,85.0,71.6,72.7,69.1,65.0,88,63,30,29.95,29.88,6,1,9,0.00
2012-7-8,103.0,82.4,67.1,72.9,68.4,64.6,96,68,30,29.96,29.87,7,1,9,0.00
2012-7-9,90.2,81.4,67.9,74.8,67.4,56.1,98,65,35,29.99,29.90,3,1,6,0.62
2012-7-10,94.5,79.5,63.9,68.6,62.0,56.8,96,60,29,29.99,29.89,5,1,12,0.00
2012-7-11,94.8,80.6,64.7,69.8,63.5,58.8,93,60,32,30.00,29.91,4,1,6,0.00
2012-7-12,97.0,82.0,64.7,68.8,63.6,58.2,93,58,28,29.98,29.88,3,1,10,0.00
2012-7-13,98.7,80.5,66.6,70.5,65.5,59.7,94,64,29,29.99,29.91,4,1,9,0.00
2012-7-14,90.1,77.7,67.6,70.4,68.1,65.5,95,75,46,30.02,29.93,2,0,5,0.05
2012-7-15,96.4,80.5,65.7,73.1,68.4,64.4,99,71,36,30.05,29.91,4,1,10,0.00
2012-7-16,96.8,85.2,72.7,73.8,70.3,68.0,90,63,41,29.97,29.80,4,1,11,0.00
2012-7-17,99.6,86.1,72.0,72.2,69.3,65.6,91,60,35,29.91,29.77,4,1,10,0.00
2012-7-18,103.1,88.8,72.7,72.2,67.1,62.6,83,53,28,29.92,29.77,5,1,10,0.00
2012-7-19,103.9,88.3,73.6,70.4,66.8,63.0,76,52,27,29.94,29.80,4,1,8,0.00
2012-7-20,94.6,84.2,72.7,71.6,67.6,62.7,87,59,36,29.98,29.86,5,2,12,0.00
2012-7-21,99.2,83.5,66.7,68.6,62.3,57.2,92,54,26,30.04,29.92,4,1,8,0.00
2012-7-22,102.0,84.0,67.9,69.9,61.4,57.4,82,50,24,30.04,29.93,5,1,8,0.00
2012-7-23,103.9,90.5,77.4,73.3,67.3,58.1,77,50,23,30.03,29.89,4,1,9,0.00
2012-7-24,103.8,90.0,79.7,72.2,67.1,63.9,66,49,29,29.97,29.78,4,1,9,0.00
2012-7-25,103.8,91.0,78.6,71.1,66.5,62.8,68,47,28,29.83,29.64,6,2,11,0.00
2012-7-26,94.6,84.8,70.6,74.6,68.4,63.0,83,59,43,29.84,29.65,2,0,5,0.03
2012-7-27,101.8,84.1,66.9,73.6,64.8,56.0,93,58,28,29.96,29.83,5,1,10,0.00
2012-7-28,99.1,81.7,61.1,65.0,58.4,49.6,93,52,22,30.07,29.94,3,1,8,0.00
2012-7-29,104.3,83.9,71.0,72.3,66.7,55.5,87,58,28,30.00,29.77,6,2,11,0.08
2012-7-30,100.7,85.8,72.5,71.4,67.8,63.6,85,57,35,29.86,29.76,4,1,7,0.00
2012-7-31,103.0,86.6,71.4,75.0,68.4,58.4,96,60,24,29.90,29.80,4,1,8,0.03
2012-8-1,104.4,87.7,72.1,70.4,67.3,64.8,84,55,29,29.86,29.70,4,0,6,0.00
2012-8-2,98.5,86.2,75.6,73.5,70.8,67.8,77,61,41,29.81,29.65,5,1,9,0.00
2012-8-3,100.4,86.7,70.5,74.9,69.7,65.7,94,60,33,29.76,29.68,3,0,5,0.00
2012-8-4,104.3,88.9,74.6,76.1,70.8,65.7,93,59,30,29.89,29.71,5,1,10,0.25
2012-8-5,93.7,79.7,65.5,75.9,63.7,52.6,98,65,27,30.09,29.87,5,1,10,0.06
2012-8-6,97.5,78.8,58.5,64.7,56.6,48.3,97,55,21,30.10,29.92,3,1,8,0.00
2012-8-7,102.5,83.2,62.6,66.5,59.0,52.0,90,51,19,29.96,29.84,4,1,9,0.00
2012-8-8,102.7,79.1,66.3,70.6,64.6,59.9,96,66,26,29.97,29.78,4,1,7,0.24
2012-8-9,94.4,79.0,65.4,71.4,66.4,62.5,98,69,36,29.94,29.77,4,1,8,0.00
2012-8-10,83.9,72.1,60.7,64.2,58.0,51.9,97,65,36,29.98,29.85,6,2,9,0.00
2012-8-11,88.0,70.1,52.3,61.5,53.6,50.1,97,62,29,30.04,29.91,3,0,6,0.00
2012-8-12,89.3,74.1,59.3,69.9,59.8,52.9,90,64,38,29.96,29.78,5,1,8,0.03
2012-8-13,80.2,70.8,65.3,65.5,62.5,58.7,92,75,51,29.99,29.80,4,1,8,0.01
2012-8-14,71.1,63.6,56.7,65.2,60.9,55.6,97,91,73,30.05,29.92,3,0,5,0.09
2012-8-15,95.5,76.8,56.1,67.6,62.6,55.4,99,67,36,29.95,29.78,4,1,10,0.00
2012-8-16,96.6,80.3,65.9,74.8,68.8,62.9,96,70,46,29.96,29.76,6,1,8,0.57
2012-8-17,83.0,69.4,55.4,64.5,55.0,45.0,98,66,28,30.05,29.92,3,0,7,0.00
2012-8-18,85.0,68.0,49.7,59.5,52.4,44.5,97,63,26,29.99,29.83,2,0,6,0.00
2012-8-19,87.9,71.4,58.2,60.9,53.0,47.0,92,58,26,29.95,29.87,4,1,7,0.00
2012-8-20,88.1,67.7,49.5,57.4,50.2,46.2,98,61,25,30.00,29.91,4,1,8,0.00
2012-8-21,95.5,73.4,53.2,56.2,50.1,42.9,91,52,18,30.01,29.94,3,1,7,0.00
2012-8-22,97.4,78.4,58.8,59.4,52.7,48.8,77,46,20,30.04,29.93,2,0,4,0.00
2012-8-23,94.4,78.8,60.1,59.7,54.5,50.2,81,47,23,30.05,29.92,5,1,12,0.00
2012-8-24,90.9,79.2,67.5,58.5,55.1,50.4,67,46,26,29.99,29.86,6,1,12,0.00
2012-8-25,83.8,75.5,69.3,73.1,65.8,56.6,95,73,50,29.90,29.86,5,1,10,0.20
2012-8-26,84.8,75.1,72.4,74.1,71.4,70.6,95,89,68,29.97,29.87,3,1,9,0.00
2012-8-27,92.5,80.0,65.2,72.3,66.1,58.9,99,67,33,30.09,29.98,4,2,8,0.00
2012-8-28,95.2,76.5,58.0,67.7,60.6,57.4,99,65,30,30.10,29.93,4,1,8,0.00
2012-8-29,96.8,78.1,59.9,66.7,56.6,44.9,98,56,18,30.01,29.86,5,1,9,0.00
2012-8-30,98.5,82.6,61.7,67.6,60.8,55.0,87,52,24,29.95,29.81,6,2,12,0.00
2012-8-31,79.6,74.7,72.3,74.5,71.9,67.2,98,92,69,29.90,29.68,5,2,9,1.66
2012-9-1,77.5,72.8,70.2,74.8,71.7,69.0,99,96,89,29.83,29.70,5,1,8,0.10
2012-9-2,88.0,74.7,68.3,74.7,70.9,68.0,100,89,63,29.90,29.81,4,1,10,0.00
2012-9-3,95.5,78.4,64.3,76.2,70.1,64.3,100,79,45,29.89,29.80,2,0,7,0.00
2012-9-4,96.4,81.5,70.4,75.2,71.9,69.2,97,75,43,29.92,29.75,6,1,7,0.00
2012-9-5,95.5,82.3,71.6,74.5,71.5,68.6,93,72,43,29.81,29.73,3,0,5,0.00
2012-9-6,93.4,76.8,67.7,75.5,69.4,63.3,100,80,48,29.94,29.80,6,1,16,0.08
2012-9-7,95.4,76.3,63.0,73.0,67.3,60.0,96,76,43,29.95,29.62,8,2,19,0.25
2012-9-8,76.0,63.1,52.2,59.7,53.3,49.3,98,74,42,30.08,29.93,5,1,9,0.00
2012-9-9,77.2,62.6,50.2,57.8,52.0,49.5,99,73,39,30.13,29.98,5,1,10,0.00
2012-9-10,81.0,64.5,46.5,59.0,52.6,46.0,100,70,38,30.19,30.04,5,1,9,0.00
2012-9-11,89.3,73.3,56.1,62.9,58.0,53.6,92,62,33,30.09,29.98,4,1,9,0.00
2012-9-12,86.4,73.9,60.4,63.3,59.7,57.4,91,64,39,30.09,30.00,6,2,8,0.00
2012-9-13,76.8,67.4,57.3,65.3,59.3,53.8,88,76,64,30.27,30.06,6,2,13,0.00
2012-9-14,59.3,56.4,52.9,58.4,55.1,50.7,98,96,86,30.32,30.24,3,1,7,0.89
2012-9-15,61.8,58.8,57.2,59.8,57.7,56.1,99,96,92,30.28,30.11,3,0,4,0.23
2012-9-16,71.5,62.1,58.6,64.9,60.2,57.7,99,94,78,30.12,30.05,1,0,4,0.00
2012-9-17,77.9,70.0,62.5,67.7,64.2,55.7,100,83,66,29.90,29.77,4,1,10,0.00
2012-9-18,69.7,57.7,44.5,55.7,45.1,35.4,98,68,30,30.07,29.88,5,1,10,0.00
2012-9-19,77.9,61.4,42.2,55.0,48.1,41.4,98,66,38,30.10,29.92,6,2,11,0.00
2012-9-20,80.3,65.9,52.9,58.5,49.6,39.3,92,61,25,29.99,29.93,4,1,7,0.00
2012-9-21,83.8,66.6,51.6,64.3,51.1,44.4,87,61,28,29.97,29.76,5,1,9,0.00
2012-9-22,73.0,57.5,43.1,52.1,41.4,30.0,97,61,23,30.23,29.92,5,1,9,0.00
2012-9-23,70.4,52.2,34.4,46.0,38.7,33.5,98,66,30,30.33,30.22,3,0,6,0.00
2012-9-24,75.5,61.6,44.5,57.8,48.2,39.3,84,63,45,30.24,29.87,5,2,9,0.00
2012-9-25,90.2,76.7,66.6,67.5,64.3,56.4,94,67,45,29.93,29.76,6,2,27,0.05
2012-9-26,75.8,66.8,61.9,67.8,63.9,61.0,98,91,72,30.05,29.84,3,0,5,1.14
2012-9-27,74.9,66.4,61.9,69.4,65.1,61.4,100,96,80,30.11,30.04,1,0,5,0.05
2012-9-28,68.4,63.5,54.2,65.5,61.2,53.6,100,93,72,30.13,30.05,4,1,7,0.03
2012-9-29,74.8,60.7,50.0,57.2,52.9,49.7,100,79,45,30.13,29.99,3,0,7,0.00
2012-9-30,75.6,59.0,48.5,60.2,53.7,48.1,100,85,52,30.01,29.83,1,0,3,0.00
2012-10-1,72.9,59.5,48.4,57.0,50.6,44.5,99,76,40,29.84,29.74,5,1,11,0.00
2012-10-2,74.4,56.8,42.7,54.9,49.3,42.2,99,80,46,29.89,29.81,2,0,6,0.00
2012-10-3,76.1,60.9,49.7,59.9,54.2,48.9,99,81,44,30.00,29.88,3,0,8,0.00
2012-10-4,78.0,65.0,52.7,61.8,55.9,45.5,92,73,54,30.16,29.99,5,1,10,0.00
2012-10-5,54.1,45.6,35.8,45.9,42.5,35.0,98,89,74,30.26,30.14,4,1,7,0.25
2012-10-6,46.0,39.9,32.2,41.0,37.6,31.4,99,92,77,30.32,30.24,2,0,3,0.09
2012-10-7,56.2,41.9,29.7,41.5,34.3,29.0,98,78,39,30.33,30.17,3,0,8,0.00
2012-10-8,61.3,44.6,28.8,41.6,35.0,28.1,98,73,38,30.23,30.04,5,1,7,0.01
2012-10-9,69.7,55.0,42.9,55.0,45.1,38.4,95,72,41,30.07,29.88,6,2,13,0.06
2012-10-10,61.6,47.7,34.6,46.4,37.5,30.6,98,73,32,30.29,30.04,4,0,7,0.00
2012-10-11,61.0,51.2,36.4,53.0,45.0,34.4,95,80,68,30.19,30.08,4,0,5,0.00
2012-10-12,60.0,55.8,52.1,56.0,52.2,47.0,95,88,81,30.30,30.14,5,1,8,0.00
2012-10-13,74.5,65.8,57.3,66.9,62.5,55.9,97,90,74,30.16,29.73,7,2,15,0.88
2012-10-14,70.3,61.8,45.6,62.7,55.3,44.4,98,81,48,29.98,29.59,5,2,11,0.40
2012-10-15,77.5,57.8,41.4,53.6,47.9,40.9,99,75,36,30.02,29.87,2,0,5,0.00
2012-10-16,81.8,67.7,52.1,52.4,48.3,41.5,93,54,27,29.87,29.56,8,2,17,0.00
2012-10-17,67.8,58.6,43.9,61.2,53.5,43.1,97,84,55,29.63,29.36,5,1,10,0.95
2012-10-18,62.3,52.7,41.5,43.8,35.7,31.0,97,56,34,29.69,29.62,7,2,14,0.00
2012-10-19,53.8,50.1,47.6,43.9,41.6,37.1,80,73,55,29.82,29.62,4,2,10,0.00
2012-10-20,73.8,56.6,37.2,46.8,42.5,36.3,98,65,30,29.90,29.75,3,0,7,0.00
2012-10-21,79.3,68.5,57.1,66.8,58.0,46.4,85,69,58,29.86,29.78,4,1,8,0.00
2012-10-22,83.2,73.7,65.9,68.6,66.4,63.7,95,79,61,29.88,29.78,8,2,14,0.00
2012-10-23,83.3,72.7,62.4,67.3,63.7,60.3,96,75,58,29.88,29.76,7,3,12,0.61
2012-10-24,84.6,73.9,63.4,67.0,63.4,60.3,91,71,52,29.89,29.76,7,3,13,0.00
2012-10-25,75.1,59.5,44.1,65.2,53.6,38.0,93,81,68,30.19,29.72,7,4,12,0.18
2012-10-26,48.1,41.8,32.6,37.7,32.2,29.6,92,69,54,30.39,30.18,5,2,13,0.00
2012-10-27,49.0,38.9,31.7,33.5,30.6,27.9,92,73,51,30.39,30.24,5,1,12,0.00
2012-10-28,53.4,38.9,25.5,35.3,29.4,24.0,96,72,41,30.34,30.25,4,1,9,0.00
2012-10-29,54.9,37.9,25.9,37.2,29.7,24.4,96,76,38,30.37,30.16,2,0,4,0.00
2012-10-30,60.6,42.8,25.0,37.5,29.0,23.8,97,64,30,30.17,29.97,3,0,5,0.00
2012-10-31,62.4,43.7,28.9,37.5,32.0,27.1,96,68,34,30.05,29.98,3,0,6,0.00
2012-11-1,73.2,50.7,30.0,44.3,38.2,28.9,97,68,33,30.04,29.88,4,1,6,0.00
2012-11-2,66.8,54.9,40.7,46.2,40.2,36.4,87,60,37,30.01,29.88,5,1,9,0.00
2012-11-3,60.2,51.1,36.5,46.4,41.4,34.4,92,71,50,30.19,29.85,4,1,8,0.00
2012-11-4,58.7,44.8,28.9,43.9,35.0,27.9,98,72,45,30.26,30.09,3,0,5,0.00
2012-11-5,51.2,46.5,43.0,46.9,43.1,34.8,97,89,60,30.10,29.94,3,0,4,0.21
2012-11-6,58.0,46.7,42.1,46.2,40.4,34.4,98,81,47,30.06,29.93,4,1,7,0.02
2012-11-7,53.9,43.8,34.8,38.1,34.6,31.5,89,71,51,30.16,30.01,5,1,10,0.00
2012-11-8,65.1,50.5,34.4,40.9,37.0,31.0,89,62,38,30.18,29.99,5,2,13,0.00
2012-11-9,76.9,62.1,49.8,59.5,51.3,40.6,76,68,54,30.01,29.83,8,3,13,0.00
2012-11-10,78.3,66.9,57.7,56.3,52.0,47.9,76,61,37,29.91,29.78,10,5,17,0.00
2012-11-11,69.2,53.8,31.0,59.0,48.8,27.6,96,84,70,30.19,29.69,11,3,24,0.81
2012-11-12,47.8,34.0,23.4,27.5,24.1,21.0,94,70,38,30.48,30.16,5,1,21,0.00
2012-11-13,56.6,39.4,20.7,35.6,25.8,19.5,96,63,31,30.53,30.39,4,0,5,0.00
2012-11-14,57.4,43.5,31.9,30.8,25.2,20.8,79,51,27,30.45,30.31,3,0,6,0.00
2012-11-15,60.3,41.9,27.5,32.6,28.6,22.5,86,63,32,30.39,30.31,2,0,5,0.00
2012-11-16,64.3,43.9,26.6,38.8,32.5,25.4,96,69,35,30.46,30.38,2,0,3,0.00
2012-11-17,63.7,50.2,36.3,32.5,29.2,27.2,72,47,27,30.46,30.32,4,1,7,0.00
2012-11-18,69.2,53.9,40.8,36.2,28.7,24.5,67,41,20,30.35,30.20,5,1,8,0.00
2012-11-19,62.0,52.9,47.4,49.7,45.3,35.3,92,76,56,30.23,30.08,5,2,9,0.12
2012-11-20,66.2,51.6,38.2,49.0,44.5,36.9,97,79,49,30.22,30.09,3,1,7,0.00
2012-11-21,71.9,52.0,30.5,49.5,38.6,29.8,98,66,31,30.27,30.08,3,0,7,0.00
2012-11-22,71.2,59.3,51.2,53.1,45.2,36.6,81,61,45,30.18,29.89,9,3,15,0.04
2012-11-23,53.9,39.2,27.8,37.3,25.2,15.8,89,58,41,30.42,30.15,6,2,13,0.00
2012-11-24,46.6,34.0,18.8,22.8,19.0,15.4,90,57,32,30.41,30.01,4,1,6,0.00
2012-11-25,62.9,48.3,35.3,32.5,28.1,21.8,68,47,30,30.02,29.89,5,1,10,0.00
2012-11-26,45.7,38.1,27.7,31.9,28.5,23.5,84,69,43,30.42,29.99,6,3,12,0.00
2012-11-27,45.3,30.1,17.2,23.8,18.9,14.5,91,66,33,30.50,30.33,2,0,3,0.00
2012-11-28,56.4,37.5,18.0,31.6,25.8,16.1,94,66,37,30.48,30.26,2,0,6,0.00
2012-11-29,66.2,50.8,35.8,41.4,33.9,29.2,81,55,32,30.26,30.04,7,2,12,0.00
2012-11-30,69.5,56.8,47.7,51.3,43.3,32.2,81,61,51,30.11,30.02,4,1,7,0.00
2012-12-1,69.4,62.2,53.3,58.9,55.2,47.3,90,78,66,30.06,29.83,10,3,15,0.00
2012-12-2,73.8,65.8,60.4,62.3,58.9,55.8,92,79,61,30.00,29.88,5,2,8,0.00
2012-12-3,75.7,67.4,54.7,60.9,57.9,53.0,94,73,52,29.93,29.78,12,4,18,0.59
2012-12-4,60.7,49.6,32.5,52.6,40.8,30.7,96,75,37,30.32,29.91,4,1,7,0.78
2012-12-5,60.6,45.0,28.6,42.9,32.9,27.6,97,67,31,30.36,30.10,4,0,8,0.00
2012-12-6,60.2,48.2,38.3,47.0,39.9,30.4,90,73,60,30.11,29.86,3,0,6,0.00
2012-12-7,59.3,50.5,44.7,49.5,46.3,42.5,95,86,69,29.89,29.80,2,0,5,0.00
2012-12-8,47.3,43.5,41.3,45.5,42.2,39.9,98,95,93,29.98,29.87,4,1,8,0.02
2012-12-9,47.5,42.4,26.6,46.9,40.0,19.3,99,91,71,30.01,29.80,5,1,8,0.01
2012-12-10,32.8,24.0,14.3,23.5,17.9,12.6,93,78,64,30.12,29.98,3,1,10,0.00
2012-12-11,46.1,27.9,13.0,22.3,18.3,11.4,94,71,35,30.25,30.11,4,0,6,0.00
2012-12-12,52.8,37.8,21.2,21.9,18.4,15.5,91,50,24,30.32,30.22,6,2,9,0.00
2012-12-13,60.5,45.9,36.1,27.6,22.9,18.2,59,41,27,30.26,30.12,6,2,11,0.00
2012-12-14,55.3,45.1,32.9,40.4,29.2,23.5,88,55,38,30.18,29.82,5,1,10,0.26
2012-12-15,64.2,53.1,43.4,48.0,43.9,38.4,92,73,50,29.86,29.59,10,4,17,0.05
2012-12-16,60.5,45.5,34.4,46.8,39.8,33.1,98,83,52,29.75,29.61,4,1,5,0.00
2012-12-17,41.2,38.0,33.4,39.8,36.5,31.7,97,95,86,29.80,29.70,2,0,6,0.01
2012-12-18,60.7,45.0,32.7,39.0,35.3,30.7,96,72,42,29.91,29.72,6,2,10,0.01
2012-12-19,48.2,39.5,32.1,39.6,34.5,29.2,95,82,71,29.92,29.74,6,2,9,0.00
2012-12-20,34.2,29.3,25.2,31.0,24.0,19.0,94,81,69,30.20,29.51,7,4,15,0.02
2012-12-21,44.8,29.6,17.5,20.3,16.2,10.9,86,61,28,30.39,30.19,3,0,14,0.00
2012-12-22,62.7,42.0,20.5,24.0,19.4,14.2,84,45,18,30.32,29.97,6,1,14,0.00
2012-12-23,60.9,44.2,30.6,42.5,32.3,21.9,85,64,41,29.98,29.81,3,0,14,0.00
2012-12-24,35.4,27.2,20.6,30.6,22.5,16.3,92,83,64,30.16,29.86,4,1,14,0.00
2012-12-25,29.8,24.3,19.7,23.6,19.2,14.5,87,81,77,30.26,30.10,6,3,14,0.00
2012-12-26,33.2,25.0,19.7,21.5,18.3,15.2,83,76,60,30.24,30.10,5,2,14,0.00
2012-12-27,36.6,28.5,18.8,25.8,22.3,16.1,91,78,63,30.21,30.00,4,1,14,0.00
2012-12-28,37.4,32.9,27.9,30.2,27.0,21.6,87,79,69,30.04,29.91,3,1,14,0.00
2012-12-29,35.4,26.2,20.4,21.3,18.2,15.2,83,72,50,30.39,30.03,3,1,14,0.00
2012-12-30,46.2,33.8,20.5,25.0,18.9,15.4,82,57,30,30.45,30.22,8,2,15,0.00
2012-12-31,38.3,34.3,32.2,34.0,29.3,18.8,97,85,46,30.25,30.06,4,1,14,0.14
2013-1-1,32.5,22.4,12.1,31.6,19.5,10.2,97,89,76,30.32,30.10,3,1,14,0.01